This demonstration page uses our WeatherBlox Daily Observations layout. Learn more.

Left ArrowRight Arrow

39.01783, -85.05884

Hourly Observations for April 10, 2019

Temp ( °F °C ) Dew Point ( °F °C ) Humidity (%) Winds ( mph kmh ) Pressure ( in mb ) Visibility ( mi km ) Precip ( " mm )
12:52 am 00:52 Clear 51 10.6 34 1.1 52 52 N N/A 29.85 1011 10 16 N/A
1:52 am 01:52 Clear 49 9.4 38 3.3 66 66 N N/A 29.86 1011 10 16 N/A
2:52 am 02:52 Clear 46 7.8 40 4.4 79 79 N N/A 29.85 1011 10 16 N/A
3:52 am 03:52 Clear 47 8.3 36 2.2 66 66 N 6 9 29.85 1011 10 16 N/A
4:52 am 04:52 Mostly Clear 50 10 36 2.2 59 59 N N/A 29.85 1011 10 16 N/A
5:52 am 05:52 Mostly Clear 43 6.1 36 2.2 76 76 N N/A 29.86 1011 10 16 N/A
6:52 am 06:52 Partly Cloudy 42 5.6 37 2.8 82 82 N N/A 29.88 1012 10 16 N/A
7:52 am 07:52 Mostly Cloudy 47 8.3 39 3.9 74 74 N N/A 29.89 1012 10 16 N/A
8:52 am 08:52 Mostly Cloudy 50 10 41 5 71 71 N N/A 29.90 1013 10 16 N/A
9:52 am 09:52 Mostly Cloudy 54 12.2 38 3.3 55 55 NW 6 9 29.91 1013 10 16 N/A
10:52 am 10:52 Mostly Cloudy 59 15 39 3.9 48 48 N 6 9 29.92 1013 10 16 N/A
11:52 am 11:52 Mostly Cloudy 60 15.6 37 2.8 42 42 N 3 6 29.91 1013 10 16 N/A
12:52 pm 12:52 Mostly Cloudy 65 18.3 36 2.2 34 34 N 3 6 29.90 1013 10 16 N/A
1:52 pm 13:52 Cloudy 66 18.9 32 undefined 28 28 N N/A 29.89 1012 10 16 N/A
2:52 pm 14:52 Cloudy 67 19.4 33 0.6 28 28 N 8 13 29.89 1012 10 16 N/A
3:52 pm 15:52 Mostly Cloudy 66 18.9 34 1.1 30 30 NNE 3 6 29.86 1011 10 16 N/A
4:52 pm 16:52 Sunny 68 20 37 2.8 32 32 ENE 8 13 29.83 1010 10 16 N/A
5:52 pm 17:52 Mostly Cloudy 67 19.4 36 2.2 32 32 NE 10 17 29.84 1010 10 16 N/A
6:52 pm 18:52 Mostly Cloudy 67 19.4 36 2.2 32 32 NE 12 19 29.83 1010 10 16 N/A
7:52 pm 19:52 Mostly Cloudy 64 17.8 36 2.2 35 35 ENE 10 17 29.81 1009 10 16 N/A
8:52 pm 20:52 Mostly Clear 62 16.7 37 2.8 40 40 E 15 24 29.82 1010 10 16 N/A
9:52 pm 21:52 Mostly Cloudy 60 15.6 37 2.8 42 42 ENE 18 30 29.85 1011 10 16 N/A
10:52 pm 22:52 Cloudy 56 13.3 39 3.9 53 53 E 17 28 29.83 1010 10 16 N/A
11:52 pm 23:52 Cloudy 55 12.8 39 3.9 55 55 ENE 16 26 29.83 1010 10 16 N/A

Powered by AerisWeather